Terminal Aerodrome Forecast
Issued by NWS

Home | Current Version | Previous Version | Text Only | Print | Product List | Glossary On
Versions: 1 2 3 4 5 6 7 8 9 10 11 12 13 14 15 16 17 18 19
000
FTUS45 KRIW 262320
TAFJAC
TAF
KJAC 262320Z 2700/2724 21011KT 5SM -SHRASN SCT015 BKN025 OVC035
      TEMPO 2700/2701 OVC015
     FM270100 22012KT 2SM -SHSN OVC015
     FM270900 23015G23KT 2SM -SHSN BKN012
     FM271200 23017G27KT 1SM -SN OVC010
     FM271800 22012KT 4SM -RASN OVC025
      AMD LTD TO CLD VIS AND WIND=

USA.gov is the U.S. government's official web portal to all federal, state and local government web resources and services.